NOAA 16 DEB, 42347

Orbit data source: Space-Track

NOAA 16 DEB, 42347 is space debris in SSO originally from a launch on Thu, 21 Sep 2000 UTC launched from the Air Force Western Test Range (AFWTR). Debris objects in space refer to the collection of defunct objects orbiting the Earth. Examples of debris include non-operational satellites, rocket bodies, and fragments generated from explosions, collisions, or faulty payload assembly.

Loading next visibility...
Identifier
42347, 2000-055QP
Orbit
SSO
Country
Flag of USUS
Related business
Manufacturer
Unknown
Mission
Spacecraft
Bus & Motor
Unknown
Mass
Unknown
Launch date (UTC)
2000-09-21 (25 years ago)
Launch vehicle
Unknown
Launch site
Air Force Western Test Range (AFWTR)
Object type
Payload
Rocket body
Debris
Shape & HBR
Unknown shape, 0.1 m
Radar Cross Section
Small (<0.1 m²)

Expand to show TLE details & history
Last TLE update: 14 hours ago

TLE from 14 hours ago
0 NOAA 16 DEB
1 42347U 00055QP  25347.27356547  .00015145  00000-0  38315-2 0  9998
2 42347  98.9657 168.2201 0037094 314.6555  45.1615 14.50614662515556
Epoch: 2025-12-13T06:33Z
TLE epoch observation values (Epoch: 2025-12-13T06:33:56.056Z)
Latitude
-0.00007°
Longitude
-12.46665°
Altitude
708.06 km
Speed
7.512 km/s
True Right ascension
11h 12m 52s
True Declination
0° 00' 00"
Sunlit
Object was in daylight at epoch
Visualization orbit readout
Latitude
Unknown
Longitude
Unknown
Altitude
Unknown
Speed
Unknown
Apparent Right ascension
Unknown
Apparent Declination
Unknown
Sunlit
N/A
Visualization observer readout
Local Sidereal Time
19:00:34
Azimuth
Unknown
Elevation
Unknown
Doppler factor
Unknown
Orbital elements
Apogee altitude
747.105 km
Perigee altitude
694.439 km
Semi-major axis
7,098.909 km
Eccentricity
0.00371
Inclination
98.9657°
RAAN
168.2201°
Arg. of periapsis
314.6555°
True anomaly
45.4639°
Mean anomaly
45.1615°
Eccentric anomaly
45.3126°
Mean motion
3.62874 °/min
Orbital period
99.21 mins
BSTAR
0.0038315
Loading maneuver chart data...
Computing Atmospheric mass density...
Loading historical data...
Loading historical data...
Loading historical data...
Loading historical data...
Loading historical data...
Loading historical data...
Loading historical data...

Documentation

Showing up to 5 results
|